User: anonymous   Login
Location: Unspecified
(0.0000°N, 0.0000°E)
Time: 12:45:18
(UTC+00:00)
Language:

PLEIADES HR1 - Orbit

View from above orbital plane
View from above orbital plane
View from above satellite
View from above satellite

Ground track
Ground track

The orbit data is extracted from the following two-line orbital elements,

1 38012U 11076F   14297.19823234  .00000529  00000-0  12357-3 0  2006
2 38012 098.1845 010.3285 0001567 079.7371 280.4025 14.58574817151900
Epoch (UTC): 24 October 2014 04:45:27
Eccentricity: 0.0001567
inclination: 98.1845°
perigee height: 696 km
apogee height: 699 km
right ascension of ascending node: 10.3285°
argument of perigee: 79.7371°
revolutions per day: 14.58574817
mean anomaly at epoch: 280.4025°
orbit number at epoch: 15190

The dashed part of the orbit path shows where the satellite is in the earth's shadow,  

DLR